[[{"header":{"parameterUnit":"m.s-1","parameterCategory":2,"la1":30.2991,"la2":30.254,"lo1":-89.0895,"lo2":-89.0444,"dy":0.0017,"dx":0.0017,"nx":28,"ny":28,"refTime":"2024-05-28T03:00:00:Z","depth":"0","parameterNumber":2,"parameterNumberName":"U-component_of_CURRENTS"},"data":[0,0,0,0,0,0,0,0,0,0,0,0,0,0,0,0,0,0,0,0,0,0,0,0,0,0,0,0,0,0,0,0,0,0,0,0,0,0,0,0,0,0,0,0,0,0,0,0,0,0,0,0,0,0,0,0,0,0,0.3667,0.3669,0,0.3864,0.3866,0.3869,0.391,0.3908,0.3907,0.3905,0.3928,0.393,0.3932,0,0,0,0,0,0,0,0,0,0,0,0,0,0.3495,0.3497,0.3667,0.3669,0.3672,0.3863,0.3866,0.3869,0.391,0.3908,0.3906,0.3905,0.3928,0.393,0.3933,0,0,0,0,0,0,0,0,0,0,0,0,0,0.362,0.3498,0.3667,0.3714,0.372,0.3863,0.3866,0.387,0.3911,0.3908,0.3906,0.3904,0.3927,0.393,0.3933,0.4001,0,0,0.3943,0.3944,0,0,0,0,0,0,0,0,0.3612,0.3626,0.3705,0.3711,0.3718,0.3859,0.3814,0.3905,0.3911,0.384,0.3905,0.3902,0.389,0.3896,0.3943,0.4002,0.4003,0.3943,0.3945,0.3946,0.3947,0,0,0,0,0,0,0,0.3603,0.3619,0.3746,0.3708,0.3716,0.3783,0.3797,0.3833,0.3874,0.3846,0.3849,0.3869,0.3892,0.394,0.3943,0.4003,0.3943,0.3946,0.3948,0.3949,0.4192,0.4196,0,0,0,0,0,0,0.357,0.361,0.374,0.3752,0.3657,0.3787,0.3803,0.3817,0.3877,0.3885,0.3871,0.3871,0.3936,0.3939,0.3944,0.403,0.3946,0.3949,0.3951,0.4187,0.4193,0.4198,0,0,0,0,0,0,0.3566,0.358,0.3732,0.3685,0.3708,0.3791,0.3808,0.3822,0.3871,0.3898,0.3902,0.3904,0.3934,0.3939,0.4015,0.403,0.3951,0.3954,0.4182,0.4189,0.4195,0.42,0,0,0,0,0,0,0.356,0.3577,0.3588,0.3682,0.371,0.3837,0.3811,0.3828,0.3886,0.3887,0.3928,0.3928,0.3932,0.4011,0.4018,0.4033,0.3956,0.4176,0.4185,0.4193,0.4194,0.4206,0.4217,0,0,0,0,0,0.3553,0.3575,0.3587,0.3604,0.3717,0.384,0.3863,0.3914,0.389,0.3942,0.3973,0.3927,0.4069,0.4018,0.4025,0.4041,0.4172,0.4182,0.4192,0.4189,0.4204,0.4216,0,0,0,0,0,0,0.3507,0.3584,0.3599,0.3642,0.3742,0.3846,0.3896,0.3922,0.3994,0.3985,0.3986,0.3994,0.4064,0.408,0.4022,0.4149,0.4113,0.4125,0.4108,0.4122,0.4133,0.4077,0.3959,0,0,0,0,0,0.3501,0.3537,0.3634,0.3676,0.3722,0.3809,0.3862,0.3906,0.3976,0.4005,0.4036,0.4076,0.412,0.4139,0.4193,0.426,0.4269,0.4284,0.4295,0.4304,0.4273,0.4318,0.4327,0.4231,0.4231,0.4231,0,0,0.3495,0.3543,0.3563,0.3669,0.3743,0.3842,0.3837,0.3934,0.4,0.3994,0.4089,0.4118,0.4154,0.4234,0.4265,0.4238,0.4355,0.4317,0.4322,0.4286,0.4329,0.4337,0.4344,0.4238,0.4237,0.4236,0,0,0.3522,0.3547,0.36,0.3693,0.3811,0.3871,0.3897,0.4017,0.4052,0.4158,0.4161,0.4201,0.4296,0.4312,0.4328,0.4441,0.4417,0.4472,0.4464,0.4509,0.4514,0.4519,0.4597,0.4608,0.4469,0.4469,0.4469,0,0.3512,0.359,0.3643,0.374,0.381,0.388,0.3974,0.4041,0.417,0.418,0.4191,0.43,0.4323,0.4369,0.4408,0.4451,0.449,0.4391,0.4514,0.4518,0.4523,0.4601,0.4613,0.447,0.447,0.447,0.447,0,0.3596,0.3674,0.3722,0.3849,0.3934,0.4033,0.4127,0.4194,0.4225,0.4265,0.4328,0.4381,0.4422,0.4453,0.4454,0.4504,0.453,0.4519,0.4452,0.4531,0.4612,0.4624,0.4472,0.4472,0.4471,0.4471,0,0,0.3526,0.3735,0.3751,0.383,0.3997,0.4069,0.4169,0.4257,0.4279,0.4371,0.4396,0.4464,0.4449,0.447,0.4485,0.4512,0.4594,0.4522,0.4524,0.4551,0.4726,0.4755,0.4771,0.4599,0.46,0.4601,0.4786,0,0.3577,0.3748,0.3839,0.3997,0.4095,0.4184,0.4262,0.4337,0.4382,0.4431,0.4435,0.4481,0.4471,0.4484,0.4509,0.4573,0.4619,0.4546,0.4686,0.469,0.4664,0.4783,0.4528,0.4671,0.4798,0.48,0.4801,0,0.3626,0.3734,0.389,0.4057,0.41,0.4185,0.4274,0.4362,0.4421,0.4448,0.4467,0.4484,0.4529,0.4515,0.463,0.4588,0.4649,0.4695,0.4704,0.4718,0.474,0.461,0.4688,0.4583,0.482,0.4819,0.4817,0,0.3547,0.3759,0.3866,0.394,0.4138,0.4179,0.4256,0.4338,0.4389,0.4446,0.448,0.4523,0.4579,0.4632,0.4733,0.4686,0.4879,0.4832,0.4922,0.4927,0.4727,0.4712,0.4662,0.491,0.491,0.4909,0.4908,0,0.3567,0.3657,0.383,0.3901,0.3985,0.4126,0.4195,0.4268,0.4359,0.4414,0.4466,0.4532,0.461,0.4725,0.4773,0.4916,0.4926,0.4936,0.4974,0.4737,0.4721,0.4633,0.459,0.4916,0.4914,0.4913,0.4912,0,0.3504,0.3626,0.3758,0.393,0.3967,0.4022,0.417,0.4217,0.4316,0.4399,0.4421,0.4572,0.473,0.4834,0.498,0.5004,0.4975,0.5155,0.4898,0.49,0.4836,0.4805,0.4647,0.452,0.5254,0.5256,0.5258,0,0.3502,0.3567,0.3737,0.3787,0.3868,0.3964,0.4025,0.4162,0.4228,0.4425,0.4463,0.4653,0.4765,0.5023,0.5088,0.5212,0.5055,0.5076,0.4916,0.4816,0.4809,0.4616,0.4504,0.4682,0.4679,0.4676,0.4674,0,0.349,0.354,0.3635,0.3728,0.38,0.3886,0.3989,0.4029,0.42,0.4287,0.4439,0.4545,0.4811,0.4844,0.5053,0.5078,0.4805,0.5028,0.4948,0.4385,0.4137,0.4038,0.4623,0.4649,0.4652,0.4654,0.4655,0.4656,0.345,0.349,0.3588,0.3668,0.3737,0.3781,0.3792,0.3914,0.3995,0.41,0.4315,0.4412,0.4573,0.4809,0.4837,0.4724,0.4712,0.4561,0.4552,0.4382,0.4166,0.4745,0.4801,0.4805,0.4807,0.481,0.4812,0,0.3391,0.3442,0.3522,0.3593,0.361,0.3679,0.3744,0.3722,0.3758,0.3938,0.4049,0.4152,0.4212,0.4319,0.4346,0.4252,0.3999,0.414,0.3741,0.3672,0.4201,0.4083,0.3952,0.3952,0.3953,0.3953,0.3953,0.3953,0.3356,0.3394,0.3438,0.3439,0.3472,0.3418,0.3412,0.34,0.3476,0.3513,0.3567,0.3704,0.391,0.4022,0.3939,0.3843,0.3569,0.3396,0.3468,0.3791,0.3825,0.3857,0.3734,0.3532,0.3531,0.2687,0.2681,0.2677]},{"header":{"parameterUnit":"m.s-1","parameterCategory":2,"la1":30.2991,"la2":30.254,"lo1":-89.0895,"lo2":-89.0444,"dy":0.0017,"dx":0.0017,"nx":28,"ny":28,"refTime":"2024-05-28T03:00:00:Z","depth":"0","parameterNumber":3,"parameterNumberName":"V-component_of_CURRENTS"},"data":[0,0,0,0,0,0,0,0,0,0,0,0,0,0,0,0,0,0,0,0,0,0,0,0,0,0,0,0,0,0,0,0,0,0,0,0,0,0,0,0,0,0,0,0,0,0,0,0,0,0,0,0,0,0,0,0,0,0,-0.0238,-0.024,0,-0.0464,-0.0467,-0.047,-0.0544,-0.0542,-0.0541,-0.054,-0.0722,-0.0728,-0.0734,0,0,0,0,0,0,0,0,0,0,0,0,0,-0.0088,-0.0089,-0.0238,-0.024,-0.0243,-0.0464,-0.0467,-0.0471,-0.0544,-0.0542,-0.0541,-0.0539,-0.072,-0.0728,-0.0735,0,0,0,0,0,0,0,0,0,0,0,0,0,-0.0221,-0.009,-0.0237,-0.0302,-0.031,-0.0463,-0.0468,-0.0472,-0.0544,-0.0542,-0.054,-0.0538,-0.0718,-0.0727,-0.0736,-0.0836,0,0,-0.0764,-0.0768,0,0,0,0,0,0,0,0,-0.0213,-0.0227,-0.029,-0.0298,-0.0307,-0.047,-0.0482,-0.059,-0.0545,-0.046,-0.054,-0.0537,-0.0632,-0.0649,-0.0703,-0.0844,-0.0852,-0.0765,-0.0771,-0.0775,-0.0777,0,0,0,0,0,0,0,-0.0204,-0.0219,-0.0332,-0.0293,-0.0303,-0.0395,-0.041,-0.0504,-0.0558,-0.0468,-0.0472,-0.0491,-0.0637,-0.0694,-0.0708,-0.0855,-0.0765,-0.0773,-0.0779,-0.0782,-0.1048,-0.1049,0,0,0,0,0,0,-0.0158,-0.0209,-0.0325,-0.0338,-0.0249,-0.0398,-0.0416,-0.0423,-0.0558,-0.0576,-0.0493,-0.0493,-0.0679,-0.0697,-0.0714,-0.0773,-0.0775,-0.0783,-0.0789,-0.1047,-0.1048,-0.105,0,0,0,0,0,0,-0.0154,-0.0166,-0.0316,-0.0276,-0.0301,-0.0401,-0.0411,-0.0429,-0.0485,-0.0577,-0.0594,-0.0528,-0.0678,-0.0701,-0.0806,-0.0782,-0.0788,-0.0796,-0.1045,-0.1047,-0.1049,-0.0933,0,0,0,0,0,0,-0.0148,-0.0163,-0.0165,-0.0272,-0.0301,-0.0418,-0.0413,-0.0435,-0.0497,-0.0501,-0.0614,-0.0629,-0.0678,-0.0792,-0.0815,-0.0795,-0.0803,-0.1043,-0.1046,-0.1048,-0.0935,-0.0931,-0.0927,0,0,0,0,0,-0.0142,-0.0152,-0.0164,-0.0179,-0.0297,-0.042,-0.0446,-0.0513,-0.05,-0.055,-0.0613,-0.0625,-0.0824,-0.0802,-0.0829,-0.081,-0.1042,-0.1045,-0.1048,-0.0936,-0.0931,-0.0927,0,0,0,0,0,0,-0.01,-0.0164,-0.0178,-0.0209,-0.0309,-0.043,-0.0474,-0.0517,-0.061,-0.0602,-0.067,-0.0693,-0.0769,-0.0829,-0.0802,-0.0899,-0.0926,-0.0935,-0.0832,-0.0828,-0.0824,-0.0762,-0.0811,0,0,0,0,0,-0.0087,-0.0104,-0.02,-0.0231,-0.0269,-0.0371,-0.0427,-0.0479,-0.0568,-0.0607,-0.0681,-0.0751,-0.0811,-0.0848,-0.0932,-0.1004,-0.1013,-0.1006,-0.1002,-0.0998,-0.097,-0.098,-0.0972,-0.1061,-0.1061,-0.1061,0,0,-0.0079,-0.0117,-0.0128,-0.0223,-0.0295,-0.0359,-0.0401,-0.0491,-0.0527,-0.0613,-0.0687,-0.0757,-0.0834,-0.0901,-0.0937,-0.0941,-0.0981,-0.1002,-0.0997,-0.0971,-0.0982,-0.0973,-0.0964,-0.1063,-0.1063,-0.1062,0,0,-0.0075,-0.0105,-0.0118,-0.0199,-0.0302,-0.0364,-0.0383,-0.051,-0.0544,-0.065,-0.0682,-0.0735,-0.0878,-0.0892,-0.0919,-0.0955,-0.0969,-0.0988,-0.0907,-0.0917,-0.0908,-0.09,-0.0892,-0.0885,-0.0975,-0.0974,-0.0974,0,-0.0062,-0.0082,-0.0154,-0.0203,-0.0246,-0.0352,-0.0388,-0.046,-0.0604,-0.0607,-0.066,-0.079,-0.0857,-0.0862,-0.0866,-0.0935,-0.0947,-0.0905,-0.0904,-0.0897,-0.089,-0.0885,-0.0877,-0.0969,-0.097,-0.097,-0.0971,0,-0.0074,-0.01,-0.0124,-0.0189,-0.0259,-0.032,-0.0408,-0.0463,-0.0512,-0.0567,-0.062,-0.0725,-0.0777,-0.0809,-0.085,-0.0826,-0.0851,-0.0899,-0.0893,-0.0873,-0.0871,-0.0865,-0.0962,-0.0963,-0.0965,-0.0966,0,0,-0.0003,-0.01,-0.0106,-0.0117,-0.0246,-0.0294,-0.0339,-0.039,-0.0368,-0.051,-0.0486,-0.0593,-0.063,-0.0662,-0.0715,-0.0722,-0.0689,-0.078,-0.0783,-0.0732,-0.0696,-0.0647,-0.0637,-0.0736,-0.0734,-0.0734,-0.0707,0,0.002,-0.0015,-0.0083,-0.0118,-0.0137,-0.023,-0.0251,-0.0311,-0.0363,-0.0381,-0.0449,-0.0484,-0.0578,-0.0587,-0.061,-0.0673,-0.0671,-0.069,-0.076,-0.0761,-0.0686,-0.0628,-0.0564,-0.053,-0.0702,-0.0701,-0.07,0,0.0043,0.0028,0.0019,-0.0024,-0.0038,-0.007,-0.0071,-0.0115,-0.0158,-0.0194,-0.0238,-0.0319,-0.0344,-0.044,-0.051,-0.0521,-0.0588,-0.0645,-0.0646,-0.0629,-0.07,-0.0587,-0.0514,-0.0723,-0.0692,-0.0693,-0.0693,0,0.0165,0.0102,0.0127,0.0095,0.0022,0.0038,0.001,-0.0033,-0.0019,-0.006,-0.0047,-0.014,-0.0151,-0.027,-0.0404,-0.0456,-0.0473,-0.0566,-0.0581,-0.0579,-0.0549,-0.0545,-0.0646,-0.0596,-0.0596,-0.0596,-0.0596,0,0.0223,0.0235,0.02,0.0204,0.0259,0.0164,0.0223,0.0184,0.0171,0.0232,0.0076,0.0122,-0.0108,-0.0168,-0.0327,-0.0407,-0.0414,-0.0529,-0.0555,-0.051,-0.0503,-0.0707,-0.083,-0.0595,-0.0595,-0.0596,-0.0596,0,0.0322,0.0292,0.0323,0.0306,0.0312,0.0353,0.0351,0.0397,0.0367,0.0447,0.0442,0.0346,0.0283,0.0065,-0.0095,-0.0257,-0.0464,-0.0409,-0.0328,-0.0344,-0.057,-0.0688,-0.0772,-0.0857,-0.0424,-0.0422,-0.0421,0,0.0361,0.0395,0.0426,0.0465,0.046,0.0506,0.0544,0.0508,0.0562,0.0613,0.0678,0.0632,0.0647,0.0421,0.0138,-0.0101,-0.0344,-0.0241,-0.0333,-0.0531,-0.0685,-0.0784,-0.086,-0.0257,-0.0254,-0.0252,-0.0251,0,0.045,0.0475,0.0506,0.0595,0.0654,0.0713,0.077,0.0848,0.0851,0.0955,0.1092,0.1117,0.092,0.0717,0.0356,0.0161,-0.0363,-0.0204,-0.0438,-0.0559,-0.0645,-0.0756,-0.0331,-0.0232,-0.0234,-0.0235,-0.0236,-0.0237,0.0535,0.058,0.0638,0.0718,0.0798,0.0911,0.0995,0.1099,0.1252,0.144,0.1449,0.1587,0.1208,0.0755,0.0431,-0.0136,-0.0181,-0.0344,-0.0467,-0.0548,-0.0636,-0.0145,-0.0065,-0.0066,-0.0067,-0.0067,-0.0068,0,0.0634,0.0669,0.0747,0.0852,0.0967,0.0979,0.1136,0.1257,0.1499,0.1731,0.1904,0.1873,0.1404,0.0846,0.0089,-0.0344,-0.0546,-0.0609,-0.0776,-0.0842,-0.042,-0.0421,-0.0378,-0.0378,-0.0377,-0.0377,-0.0377,-0.0377,0.0688,0.0772,0.0795,0.0978,0.1064,0.1226,0.1334,0.1553,0.1749,0.2092,0.2257,0.2334,0.1908,0.0504,-0.0495,-0.0735,-0.1077,-0.1098,-0.1313,-0.1082,-0.1069,-0.1058,-0.109,-0.1188,-0.1189,-0.1679,-0.1684,-0.1687]}],[{"header":{"parameterUnit":"m.s-1","parameterCategory":2,"la1":30.2991,"la2":30.254,"lo1":-89.0895,"lo2":-89.0444,"dy":0.0017,"dx":0.0017,"nx":28,"ny":28,"refTime":"2024-05-28T03:00:00:Z","depth":"2","parameterNumber":2,"parameterNumberName":"U-component_of_CURRENTS"},"data":[0,0,0,0,0,0,0,0,0,0,0,0,0,0,0,0,0,0,0,0,0,0,0,0,0,0,0,0,0,0,0,0,0,0,0,0,0,0,0,0,0,0,0,0,0,0,0,0,0,0,0,0,0,0,0,0,0,0,0.2689,0.2687,0,0.2583,0.2582,0.2582,0.2684,0.2688,0.2691,0.2694,0.2686,0.2683,0.2679,0,0,0,0,0,0,0,0,0,0,0,0,0,0.2703,0.2705,0.2689,0.2687,0.2685,0.2583,0.2582,0.2582,0.2684,0.2688,0.2692,0.2695,0.2687,0.2683,0.2679,0,0,0,0,0,0,0,0,0,0,0,0,0,0.2665,0.2705,0.269,0.2717,0.2718,0.2583,0.2582,0.2582,0.2683,0.2688,0.2693,0.2697,0.2688,0.2684,0.2679,0.2549,0,0,0.2664,0.2661,0,0,0,0,0,0,0,0,0.2668,0.2666,0.2715,0.2715,0.2716,0.2645,0.2584,0.2573,0.2682,0.2705,0.2694,0.27,0.2672,0.2669,0.2648,0.2549,0.2548,0.2663,0.266,0.2658,0.2657,0,0,0,0,0,0,0,0.2671,0.2669,0.2656,0.2712,0.2713,0.2639,0.2643,0.2581,0.267,0.2703,0.2708,0.2682,0.2675,0.2653,0.2649,0.2548,0.2663,0.2659,0.2656,0.2654,0.2845,0.2852,0,0,0,0,0,0,0.2676,0.2673,0.2659,0.2652,0.2694,0.2636,0.264,0.2669,0.2669,0.267,0.2677,0.2687,0.2659,0.2655,0.2649,0.2853,0.2658,0.2653,0.2651,0.2837,0.2846,0.2855,0,0,0,0,0,0,0.2678,0.2678,0.2663,0.265,0.2642,0.2632,0.2662,0.2664,0.2675,0.2647,0.2653,0.2689,0.2662,0.2656,0.2744,0.284,0.2651,0.2647,0.2827,0.284,0.2851,0.3031,0,0,0,0,0,0,0.268,0.2681,0.2699,0.2652,0.2643,0.2666,0.2656,0.2658,0.2644,0.2657,0.2656,0.266,0.2666,0.2752,0.2739,0.283,0.2643,0.2817,0.2833,0.2847,0.3015,0.3047,0.3075,0,0,0,0,0,0.2682,0.2696,0.2703,0.2699,0.2673,0.2667,0.266,0.2668,0.264,0.2686,0.2737,0.2662,0.2841,0.2753,0.2736,0.2828,0.281,0.2828,0.2846,0.3001,0.3041,0.3075,0,0,0,0,0,0,0.2702,0.2704,0.2712,0.2727,0.2732,0.2684,0.2695,0.2661,0.2714,0.2743,0.2713,0.2724,0.2857,0.2818,0.2722,0.2949,0.2829,0.2844,0.2953,0.299,0.302,0.3001,0.2639,0,0,0,0,0,0.2709,0.2735,0.2727,0.2738,0.2755,0.2715,0.2699,0.2711,0.2732,0.2757,0.2779,0.2831,0.2901,0.2928,0.2986,0.3035,0.3005,0.3112,0.3142,0.3167,0.3155,0.3209,0.324,0.2914,0.2914,0.2914,0,0,0.2708,0.2711,0.2722,0.2743,0.2746,0.2805,0.2727,0.2743,0.282,0.2741,0.2889,0.2918,0.2947,0.3093,0.3144,0.3072,0.3266,0.319,0.321,0.3184,0.3231,0.3261,0.3288,0.2927,0.2924,0.2922,0,0,0.2718,0.2749,0.2784,0.2814,0.2832,0.2852,0.2863,0.2877,0.2939,0.3028,0.3058,0.3151,0.3207,0.3295,0.3323,0.353,0.3431,0.3567,0.3672,0.3728,0.3751,0.3772,0.3832,0.3856,0.357,0.3571,0.3571,0,0.2718,0.2773,0.2788,0.2843,0.2884,0.2891,0.2965,0.3022,0.3076,0.3128,0.3134,0.3289,0.3311,0.3466,0.3594,0.3588,0.36,0.3512,0.3757,0.3776,0.3794,0.3849,0.3873,0.3581,0.358,0.3579,0.3578,0,0.2774,0.2824,0.2855,0.2969,0.303,0.3088,0.3187,0.3278,0.3327,0.3362,0.3527,0.3584,0.3663,0.3722,0.3711,0.3881,0.3848,0.3786,0.3633,0.3835,0.3885,0.3907,0.3597,0.3593,0.359,0.3587,0,0,0.2751,0.2873,0.2884,0.2937,0.3105,0.3136,0.334,0.3478,0.3538,0.367,0.3764,0.3938,0.3922,0.3961,0.3975,0.4031,0.4199,0.3972,0.397,0.398,0.4335,0.4129,0.4132,0.4167,0.417,0.4174,0.4336,0,0.2795,0.2896,0.2983,0.3113,0.3187,0.3312,0.347,0.3603,0.3711,0.3825,0.3923,0.4022,0.4032,0.4055,0.4141,0.4172,0.4256,0.4161,0.4182,0.4183,0.393,0.415,0.3836,0.3937,0.4356,0.4359,0.4362,0,0.2828,0.2891,0.3021,0.3157,0.3206,0.3309,0.352,0.3654,0.3851,0.3924,0.4061,0.4112,0.4286,0.4218,0.4404,0.4341,0.4371,0.4381,0.4386,0.4125,0.4015,0.38,0.3958,0.4396,0.4393,0.4391,0.4389,0,0.2765,0.2907,0.3004,0.306,0.3245,0.3335,0.3462,0.3669,0.3782,0.3977,0.4048,0.4237,0.4324,0.4415,0.4479,0.4456,0.4616,0.4575,0.4433,0.4419,0.4117,0.4067,0.4694,0.4694,0.4694,0.4693,0.4693,0,0.2765,0.2823,0.2956,0.2994,0.3114,0.3266,0.3406,0.3555,0.3752,0.3877,0.407,0.4167,0.437,0.4483,0.4529,0.4548,0.4673,0.4484,0.4453,0.4181,0.4138,0.4479,0.4451,0.4699,0.4698,0.4697,0.4696,0,0.2694,0.2772,0.2867,0.3031,0.308,0.3169,0.3382,0.3467,0.3661,0.3836,0.391,0.4168,0.4303,0.4453,0.4591,0.4581,0.4612,0.4574,0.4244,0.4168,0.4385,0.4367,0.4484,0.4478,0.4473,0.4469,0.4465,0,0.2686,0.2715,0.2867,0.2917,0.2995,0.3124,0.3221,0.3423,0.353,0.3801,0.3878,0.4075,0.4153,0.4296,0.4324,0.438,0.4492,0.4103,0.3988,0.4409,0.4368,0.4357,0.4346,0.3715,0.3706,0.3698,0.3692,0,0.2669,0.271,0.2806,0.2891,0.2974,0.3061,0.3207,0.326,0.3493,0.3596,0.3725,0.3783,0.3943,0.3846,0.3918,0.3906,0.407,0.3943,0.45,0.3773,0.3684,0.3643,0.3658,0.3624,0.3631,0.3636,0.364,0.3642,0.2676,0.2728,0.2808,0.2894,0.2962,0.2976,0.299,0.3107,0.3181,0.328,0.3441,0.3421,0.3513,0.3426,0.3359,0.3371,0.3646,0.3537,0.3562,0.3595,0.3433,0.3335,0.3183,0.3187,0.319,0.3194,0.3196,0,0.2645,0.2692,0.2786,0.2821,0.2815,0.2895,0.2955,0.2896,0.2868,0.2982,0.3001,0.2781,0.2712,0.2826,0.2736,0.2757,0.2759,0.266,0.2654,0.2724,0.2785,0.2582,0.2107,0.2103,0.21,0.2097,0,0,0.2606,0.2633,0.2675,0.2635,0.2669,0.2579,0.2576,0.2506,0.2521,0.2398,0.2375,0.2534,0.2696,0.2337,0.2325,0.2196,0.2431,0.2113,0.2993,0.3052,0.3108,0.3305,0.3071,0,0,0,0,0]},{"header":{"parameterUnit":"m.s-1","parameterCategory":2,"la1":30.2991,"la2":30.254,"lo1":-89.0895,"lo2":-89.0444,"dy":0.0017,"dx":0.0017,"nx":28,"ny":28,"refTime":"2024-05-28T03:00:00:Z","depth":"2","parameterNumber":3,"parameterNumberName":"V-component_of_CURRENTS"},"data":[0,0,0,0,0,0,0,0,0,0,0,0,0,0,0,0,0,0,0,0,0,0,0,0,0,0,0,0,0,0,0,0,0,0,0,0,0,0,0,0,0,0,0,0,0,0,0,0,0,0,0,0,0,0,0,0,0,0,-0.0035,-0.0035,0,-0.0064,-0.0065,-0.0065,-0.0149,-0.015,-0.0152,-0.0153,-0.0246,-0.0247,-0.0248,0,0,0,0,0,0,0,0,0,0,0,0,0,0.0002,0.0001,-0.0035,-0.0035,-0.0035,-0.0064,-0.0065,-0.0066,-0.0149,-0.0151,-0.0152,-0.0154,-0.0246,-0.0247,-0.0249,0,0,0,0,0,0,0,0,0,0,0,0,0,-0.0022,0.0001,-0.0035,-0.0078,-0.0081,-0.0064,-0.0065,-0.0066,-0.0148,-0.0151,-0.0153,-0.0155,-0.0246,-0.0247,-0.0249,-0.0213,0,0,-0.0254,-0.0254,0,0,0,0,0,0,0,0,-0.0021,-0.0024,-0.0071,-0.0075,-0.0079,-0.0102,-0.0086,-0.0117,-0.0148,-0.0126,-0.0153,-0.0156,-0.02,-0.0206,-0.021,-0.0217,-0.0221,-0.0254,-0.0255,-0.0255,-0.0256,0,0,0,0,0,0,0,-0.0019,-0.0023,-0.005,-0.0071,-0.0076,-0.0077,-0.0084,-0.0092,-0.0154,-0.0128,-0.0134,-0.0131,-0.0204,-0.0208,-0.0213,-0.0223,-0.0254,-0.0255,-0.0256,-0.0257,-0.0415,-0.0418,0,0,0,0,0,0,-0.0009,-0.0022,-0.0049,-0.005,-0.0051,-0.0076,-0.0083,-0.0095,-0.0153,-0.0162,-0.0129,-0.0135,-0.0204,-0.0211,-0.0217,-0.0304,-0.0255,-0.0257,-0.0258,-0.0411,-0.0415,-0.0419,0,0,0,0,0,0,-0.0009,-0.0012,-0.0048,-0.0033,-0.0038,-0.0074,-0.0086,-0.0094,-0.0103,-0.0152,-0.0164,-0.0129,-0.0206,-0.0214,-0.0288,-0.0303,-0.0258,-0.0259,-0.0408,-0.0413,-0.0417,-0.0397,0,0,0,0,0,0,-0.0008,-0.0012,-0.0011,-0.0033,-0.0038,-0.004,-0.0084,-0.0093,-0.0096,-0.0104,-0.0155,-0.0166,-0.0209,-0.0286,-0.029,-0.0305,-0.026,-0.0404,-0.041,-0.0416,-0.0393,-0.04,-0.0406,0,0,0,0,0,-0.0007,-0.0002,-0.0011,-0.0014,-0.0038,-0.0039,-0.0042,-0.0077,-0.0093,-0.0093,-0.0175,-0.0165,-0.0328,-0.0289,-0.0293,-0.0309,-0.0401,-0.0408,-0.0415,-0.039,-0.0399,-0.0406,0,0,0,0,0,0,0.0012,-0.001,-0.0021,-0.0025,-0.003,-0.0053,-0.0053,-0.0063,-0.0118,-0.0135,-0.0191,-0.0209,-0.0279,-0.0306,-0.0263,-0.0384,-0.0366,-0.0375,-0.0347,-0.0355,-0.0361,-0.0311,-0.0262,0,0,0,0,0,0.0022,0.0018,0.0001,0.0002,-0.0002,-0.0019,-0.002,-0.0037,-0.0084,-0.0108,-0.016,-0.0235,-0.0307,-0.0341,-0.0397,-0.0441,-0.0428,-0.0466,-0.0472,-0.0477,-0.0447,-0.0468,-0.047,-0.0443,-0.0443,-0.0443,0,0,0.0032,0.0021,0.0019,0.0008,-0.0003,0.0004,-0.0028,-0.0026,-0.0045,-0.0108,-0.0172,-0.024,-0.0325,-0.0405,-0.0438,-0.0431,-0.0484,-0.0486,-0.0489,-0.0455,-0.0475,-0.0477,-0.0478,-0.0448,-0.0447,-0.0446,0,0,0.0066,0.0038,0.0053,0.0052,0.0049,0.0029,0.0036,0.0008,-0.0041,-0.0099,-0.0174,-0.0255,-0.0347,-0.0422,-0.0471,-0.0537,-0.0511,-0.0569,-0.0557,-0.0579,-0.0579,-0.0579,-0.0564,-0.0563,-0.0579,-0.0579,-0.0579,0,0.008,0.0098,0.0061,0.0081,0.0092,0.0045,0.0077,0.0018,-0.0039,-0.0084,-0.0125,-0.0291,-0.0353,-0.0454,-0.0506,-0.0541,-0.0541,-0.051,-0.0579,-0.0579,-0.0579,-0.0564,-0.0562,-0.0578,-0.0578,-0.0578,-0.0578,0,0.0127,0.0149,0.0157,0.0159,0.016,0.0178,0.0114,0.0071,0.0007,-0.0055,-0.0171,-0.0286,-0.0379,-0.0433,-0.0493,-0.0548,-0.0543,-0.057,-0.0536,-0.0578,-0.0563,-0.0561,-0.0578,-0.0578,-0.0578,-0.0578,0,0,0.0149,0.0186,0.0192,0.0233,0.0211,0.0227,0.0164,0.0108,0.0085,-0.0051,-0.0097,-0.0276,-0.0336,-0.0396,-0.0483,-0.0523,-0.0538,-0.055,-0.0551,-0.0493,-0.0559,-0.0532,-0.0528,-0.0577,-0.0577,-0.0577,-0.0544,0,0.0206,0.0282,0.0272,0.0343,0.0384,0.0324,0.0287,0.0217,0.0123,0.0048,-0.0126,-0.0202,-0.033,-0.036,-0.0438,-0.0507,-0.0536,-0.0542,-0.0562,-0.0562,-0.0498,-0.0526,-0.05,-0.0466,-0.0543,-0.0543,-0.0542,0,0.0261,0.0315,0.0402,0.0467,0.0476,0.049,0.0457,0.0422,0.027,0.0191,0.0049,-0.0069,-0.0204,-0.0274,-0.0423,-0.0425,-0.0482,-0.0534,-0.0534,-0.0504,-0.0533,-0.0443,-0.0461,-0.054,-0.054,-0.054,-0.0541,0,0.0322,0.0408,0.0491,0.0511,0.0552,0.056,0.0558,0.046,0.0439,0.0294,0.0284,0.0064,0.0008,-0.0143,-0.0299,-0.0355,-0.0403,-0.049,-0.0515,-0.0513,-0.0487,-0.0482,-0.0542,-0.0542,-0.0542,-0.0542,-0.0542,0,0.039,0.0462,0.0532,0.058,0.0666,0.066,0.0706,0.0645,0.0592,0.0599,0.0377,0.0369,0.0045,-0.0051,-0.0223,-0.0351,-0.0349,-0.049,-0.0503,-0.0484,-0.048,-0.0547,-0.0548,-0.0541,-0.0541,-0.0541,-0.0542,0,0.0443,0.0487,0.0598,0.0676,0.07,0.076,0.0818,0.0841,0.0793,0.081,0.0781,0.0601,0.0467,0.0196,-0.0006,-0.02,-0.0341,-0.0365,-0.0306,-0.0315,-0.0461,-0.0462,-0.0432,-0.0431,-0.043,-0.0429,-0.0429,0,0.0478,0.0543,0.0668,0.0733,0.0772,0.0859,0.0908,0.0907,0.0941,0.0979,0.0997,0.0891,0.0797,0.0497,0.0151,-0.0135,-0.0204,-0.0273,-0.0398,-0.0433,-0.045,-0.0453,-0.0456,-0.0358,-0.0357,-0.0356,-0.0355,0,0.0557,0.0595,0.068,0.0809,0.0894,0.1002,0.1081,0.1156,0.1187,0.1238,0.1314,0.1275,0.0973,0.0645,0.025,0.0052,-0.0257,-0.0261,-0.0294,-0.0392,-0.0362,-0.0379,-0.0384,-0.0346,-0.0347,-0.0348,-0.0348,-0.0349,0.0609,0.0674,0.0779,0.0897,0.1004,0.1141,0.1234,0.1335,0.146,0.1538,0.1529,0.1471,0.1115,0.0569,0.0248,-0.0123,-0.0142,-0.0311,-0.0315,-0.032,-0.0319,-0.029,-0.0258,-0.0258,-0.0259,-0.0259,-0.0259,0,0.0692,0.0754,0.0861,0.1016,0.1141,0.1176,0.1344,0.1436,0.1612,0.1656,0.1692,0.1383,0.1048,0.0658,0.0117,-0.0201,-0.0265,-0.0301,-0.0329,-0.0333,-0.0338,-0.0342,-0.0285,-0.0286,-0.0287,-0.0288,0,0,0.074,0.0856,0.0903,0.1114,0.1211,0.1371,0.1476,0.1608,0.1675,0.1734,0.1679,0.1566,0.1133,0.0735,0.0313,0.0012,-0.0095,-0.0049,0.0007,0.0022,0.002,-0.0304,-0.0308,0,0,0,0,0]}],[{"header":{"parameterUnit":"m.s-1","parameterCategory":2,"la1":30.2991,"la2":30.254,"lo1":-89.0895,"lo2":-89.0444,"dy":0.0017,"dx":0.0017,"nx":28,"ny":28,"refTime":"2024-05-28T03:00:00:Z","depth":"4","parameterNumber":2,"parameterNumberName":"U-component_of_CURRENTS"},"data":[0,0,0,0,0,0,0,0,0,0,0,0,0,0,0,0,0,0,0,0,0,0,0,0,0,0,0,0,0,0,0,0,0,0,0,0,0,0,0,0,0,0,0,0,0,0,0,0,0,0,0,0,0,0,0,0,0,0,0.14,0.1399,0,0.1333,0.1332,0.1331,0.135,0.1352,0.1353,0.1355,0.1405,0.1406,0.1406,0,0,0,0,0,0,0,0,0,0,0,0,0,0.1473,0.1472,0.14,0.1399,0.1398,0.1333,0.1332,0.1331,0.135,0.1352,0.1354,0.1355,0.1405,0.1406,0.1406,0,0,0,0,0,0,0,0,0,0,0,0,0,0.1427,0.1471,0.14,0.14,0.1399,0.1333,0.1332,0.1331,0.135,0.1352,0.1354,0.1356,0.1405,0.1406,0.1406,0.1364,0,0,0.1406,0.1406,0,0,0,0,0,0,0,0,0.1429,0.1424,0.1401,0.14,0.1399,0.1352,0.1376,0.1348,0.1349,0.1368,0.1355,0.1357,0.1397,0.1398,0.1379,0.1366,0.1368,0.1406,0.1406,0.1406,0.1406,0,0,0,0,0,0,0,0.1433,0.1427,0.1373,0.14,0.1399,0.1379,0.1375,0.137,0.1374,0.1367,0.1368,0.136,0.1398,0.1378,0.138,0.1369,0.1406,0.1406,0.1406,0.1406,0.1429,0.143,0,0,0,0,0,0,0.1442,0.143,0.1375,0.1371,0.142,0.1376,0.1372,0.1365,0.1371,0.1373,0.1359,0.1362,0.1377,0.138,0.1383,0.1439,0.1406,0.1406,0.1406,0.1429,0.143,0.143,0,0,0,0,0,0,0.1444,0.1438,0.1378,0.1399,0.139,0.1373,0.1365,0.1363,0.1375,0.1364,0.1369,0.1377,0.1379,0.1382,0.1387,0.1438,0.1406,0.1406,0.1428,0.1429,0.143,0.1486,0,0,0,0,0,0,0.1447,0.1439,0.1452,0.14,0.1389,0.1355,0.1362,0.136,0.1365,0.1369,0.138,0.1385,0.1381,0.1387,0.1387,0.1437,0.1406,0.1427,0.1429,0.143,0.1483,0.1488,0.1493,0,0,0,0,0,0.1449,0.1441,0.1453,0.1447,0.1403,0.1355,0.1348,0.1342,0.1364,0.1363,0.1367,0.1386,0.1396,0.1386,0.1387,0.1439,0.1427,0.1428,0.143,0.1481,0.1487,0.1493,0,0,0,0,0,0,0.148,0.144,0.1453,0.1437,0.1413,0.1359,0.1358,0.1356,0.1354,0.1376,0.1373,0.1376,0.1387,0.1401,0.139,0.1447,0.1423,0.1425,0.1462,0.1468,0.1473,0.1534,0.1406,0,0,0,0,0,0.1493,0.1482,0.1444,0.1437,0.1428,0.1403,0.1391,0.1389,0.1371,0.1374,0.1373,0.1387,0.1385,0.1419,0.1396,0.1436,0.1471,0.1475,0.148,0.1484,0.1532,0.1614,0.1633,0.1435,0.1434,0.1434,0,0,0.1503,0.1482,0.1479,0.1445,0.143,0.1399,0.1402,0.139,0.1386,0.138,0.1385,0.1378,0.1384,0.1406,0.1422,0.1441,0.1548,0.1486,0.149,0.1537,0.1618,0.1638,0.1655,0.1435,0.1435,0.1435,0,0,0.1501,0.1503,0.1493,0.1467,0.1449,0.1422,0.1427,0.1391,0.1408,0.141,0.1395,0.144,0.1432,0.1462,0.1476,0.1505,0.1534,0.1493,0.1617,0.1694,0.1712,0.1729,0.1759,0.1779,0.1541,0.1542,0.1542,0,0.153,0.1503,0.1483,0.1458,0.1442,0.1434,0.1416,0.1412,0.1387,0.1436,0.143,0.1463,0.1476,0.1532,0.1557,0.1526,0.1551,0.1593,0.1705,0.1723,0.1739,0.1766,0.1787,0.1544,0.1544,0.1544,0.1544,0,0.1496,0.1493,0.1481,0.145,0.1427,0.1412,0.1395,0.1392,0.1426,0.1477,0.1541,0.1543,0.1606,0.1601,0.1605,0.1719,0.1687,0.1665,0.1699,0.1763,0.1786,0.1806,0.1548,0.1547,0.1547,0.1546,0,0,0.1516,0.1474,0.1477,0.1472,0.1429,0.1404,0.1396,0.1429,0.1494,0.1526,0.1626,0.1665,0.1744,0.1764,0.176,0.1854,0.1984,0.1842,0.1844,0.1888,0.213,0.1993,0.2002,0.1982,0.1987,0.199,0.2086,0,0.1512,0.1476,0.1454,0.143,0.1405,0.1391,0.1396,0.1439,0.1512,0.1605,0.1701,0.1799,0.1782,0.1845,0.1931,0.1958,0.2048,0.1959,0.205,0.2053,0.1938,0.2026,0.2006,0.2101,0.2106,0.2109,0.2112,0,0.1477,0.1462,0.1443,0.1437,0.1434,0.1429,0.1463,0.1487,0.1627,0.1707,0.1843,0.1923,0.2069,0.2038,0.2179,0.2121,0.2162,0.2177,0.2181,0.2065,0.1957,0.2032,0.2149,0.2146,0.2143,0.2141,0.2139,0,0.1466,0.1451,0.1447,0.1433,0.1422,0.1441,0.1464,0.1561,0.1618,0.1823,0.1909,0.2077,0.2167,0.2253,0.2328,0.2279,0.2459,0.2384,0.2284,0.2272,0.2341,0.2322,0.2511,0.2511,0.2511,0.2511,0.251,0,0.143,0.1429,0.1459,0.1447,0.1478,0.1486,0.1576,0.1616,0.1737,0.186,0.2008,0.2084,0.2238,0.2347,0.2389,0.241,0.2521,0.234,0.2313,0.235,0.2333,0.2352,0.2333,0.2514,0.2513,0.2513,0.2512,0,0.1373,0.1402,0.1391,0.1428,0.1467,0.1489,0.1588,0.1643,0.1779,0.1912,0.199,0.2141,0.2285,0.239,0.2537,0.2469,0.252,0.25,0.2545,0.2511,0.2252,0.2234,0.2382,0.2379,0.2376,0.2374,0.2372,0,0.1318,0.1316,0.1376,0.1397,0.1422,0.1495,0.1539,0.1654,0.1709,0.1921,0.1956,0.2159,0.2263,0.2334,0.2454,0.2529,0.2497,0.2496,0.2373,0.2294,0.2253,0.2239,0.2225,0.2367,0.2366,0.2365,0.2365,0,0.1216,0.1265,0.1266,0.131,0.136,0.1411,0.1497,0.1523,0.1678,0.1818,0.1917,0.2023,0.2158,0.2256,0.235,0.2388,0.2485,0.2464,0.2468,0.2352,0.2276,0.2235,0.2225,0.2354,0.2356,0.2357,0.2357,0,0.115,0.113,0.1167,0.1186,0.1255,0.1292,0.1358,0.1426,0.1497,0.1722,0.1766,0.1971,0.2142,0.2184,0.2271,0.2313,0.2252,0.2164,0.2182,0.2194,0.2092,0.1965,0.1965,0,0,0,0,0,0.1078,0.1052,0.1047,0.1066,0.1124,0.1186,0.1296,0.1366,0.154,0.1566,0.166,0.1796,0.1927,0.2012,0.2017,0.2169,0.2251,0.2162,0.2154,0.2298,0.231,0.2208,0,0,0,0,0,0,0.1036,0.1026,0.0999,0.0961,0.098,0.1039,0.1118,0.1238,0.1254,0.1453,0.1524,0.1693,0.183,0.1924,0.1989,0.202,0.1978,0.2292,0.2287,0.2292,0.2302,0.2312,0.2211,0,0,0,0,0]},{"header":{"parameterUnit":"m.s-1","parameterCategory":2,"la1":30.2991,"la2":30.254,"lo1":-89.0895,"lo2":-89.0444,"dy":0.0017,"dx":0.0017,"nx":28,"ny":28,"refTime":"2024-05-28T03:00:00:Z","depth":"4","parameterNumber":3,"parameterNumberName":"V-component_of_CURRENTS"},"data":[0,0,0,0,0,0,0,0,0,0,0,0,0,0,0,0,0,0,0,0,0,0,0,0,0,0,0,0,0,0,0,0,0,0,0,0,0,0,0,0,0,0,0,0,0,0,0,0,0,0,0,0,0,0,0,0,0,0,0.0152,0.0153,0,0.0169,0.0169,0.0169,0.0147,0.0146,0.0145,0.0145,0.0126,0.0126,0.0126,0,0,0,0,0,0,0,0,0,0,0,0,0,0.0124,0.0124,0.0152,0.0153,0.0153,0.0169,0.0169,0.0169,0.0147,0.0146,0.0145,0.0144,0.0126,0.0126,0.0126,0,0,0,0,0,0,0,0,0,0,0,0,0,0.0137,0.0124,0.0152,0.0144,0.0144,0.0169,0.0169,0.017,0.0147,0.0146,0.0145,0.0144,0.0126,0.0126,0.0126,0.015,0,0,0.0127,0.0127,0,0,0,0,0,0,0,0,0.0136,0.0138,0.0145,0.0145,0.0144,0.0156,0.0153,0.0161,0.0147,0.0145,0.0145,0.0143,0.0134,0.0133,0.0138,0.0149,0.0148,0.0127,0.0127,0.0127,0.0127,0,0,0,0,0,0,0,0.0135,0.0137,0.0158,0.0146,0.0145,0.0148,0.0148,0.0154,0.0144,0.0145,0.0144,0.0147,0.0133,0.0138,0.0137,0.0148,0.0127,0.0127,0.0127,0.0128,0.0236,0.0239,0,0,0,0,0,0,0.0135,0.0136,0.0157,0.0159,0.0139,0.0149,0.015,0.0152,0.0144,0.0143,0.0148,0.0146,0.0138,0.0137,0.0137,0.0194,0.0127,0.0128,0.0128,0.0234,0.0237,0.024,0,0,0,0,0,0,0.0135,0.0137,0.0157,0.0149,0.0151,0.0151,0.0154,0.0153,0.0164,0.0148,0.0145,0.0161,0.0137,0.0136,0.0177,0.0192,0.0128,0.0128,0.023,0.0235,0.0238,0.029,0,0,0,0,0,0,0.0134,0.0137,0.0143,0.0149,0.0152,0.0189,0.0155,0.0154,0.0168,0.0166,0.0158,0.0154,0.0136,0.0177,0.0177,0.0191,0.0128,0.0227,0.0232,0.0237,0.0285,0.0295,0.0304,0,0,0,0,0,0.0133,0.0151,0.0143,0.0146,0.0159,0.0191,0.0194,0.0188,0.017,0.0191,0.0197,0.0155,0.0209,0.018,0.018,0.0193,0.0224,0.0231,0.0237,0.028,0.0293,0.0304,0,0,0,0,0,0,0.0143,0.015,0.0142,0.0161,0.0181,0.0188,0.0207,0.0199,0.022,0.0218,0.0194,0.0193,0.0228,0.0222,0.0191,0.0246,0.0208,0.0215,0.0242,0.0253,0.0263,0.0268,0.0128,0,0,0,0,0,0.0148,0.0161,0.0173,0.0189,0.0204,0.0207,0.0218,0.0218,0.0233,0.0239,0.0241,0.0247,0.0254,0.0263,0.0272,0.031,0.0259,0.0321,0.0331,0.0339,0.0348,0.0292,0.0295,0.026,0.026,0.026,0,0,0.0156,0.0162,0.0169,0.0192,0.0206,0.025,0.0212,0.0242,0.0273,0.0236,0.0288,0.0279,0.0274,0.0311,0.0326,0.0307,0.0323,0.0347,0.0353,0.0357,0.0298,0.0301,0.0303,0.0264,0.0263,0.0263,0,0,0.019,0.0188,0.0217,0.0245,0.0274,0.0284,0.0298,0.0322,0.0327,0.0382,0.0351,0.0363,0.0397,0.0385,0.0383,0.0459,0.0373,0.0462,0.0514,0.0459,0.046,0.0461,0.0386,0.0379,0.0469,0.047,0.047,0,0.0196,0.0235,0.0234,0.0281,0.031,0.0306,0.0359,0.0374,0.0409,0.0421,0.0414,0.044,0.0431,0.0443,0.0475,0.0474,0.0424,0.0459,0.0466,0.0466,0.0465,0.0389,0.038,0.0473,0.0472,0.0472,0.0472,0,0.026,0.0298,0.0326,0.038,0.0413,0.0459,0.0484,0.0512,0.052,0.0533,0.0556,0.0542,0.0552,0.0549,0.054,0.0535,0.0493,0.0474,0.0422,0.047,0.0388,0.0379,0.0477,0.0476,0.0475,0.0475,0,0,0.0254,0.0348,0.0359,0.0402,0.0468,0.0501,0.0558,0.0603,0.0633,0.0652,0.0668,0.0685,0.0658,0.0656,0.0618,0.0582,0.053,0.0539,0.0534,0.044,0.0389,0.0353,0.0338,0.0501,0.0501,0.05,0.0326,0,0.0303,0.0404,0.0436,0.0537,0.0597,0.0616,0.0667,0.0704,0.0731,0.0751,0.0709,0.0729,0.0701,0.0695,0.0654,0.0561,0.0511,0.0578,0.0379,0.0373,0.0315,0.0329,0.0498,0.0318,0.0316,0.0314,0.0313,0,0.0359,0.042,0.0526,0.0614,0.0639,0.0696,0.0762,0.081,0.0834,0.0846,0.0843,0.0812,0.0766,0.073,0.0585,0.0626,0.0524,0.0444,0.0434,0.0379,0.0321,0.0267,0.0294,0.0296,0.0297,0.0299,0.03,0,0.0365,0.0479,0.056,0.0599,0.0702,0.0738,0.0787,0.0845,0.0882,0.0905,0.0916,0.0861,0.0813,0.0695,0.0553,0.0563,0.0366,0.0349,0.0213,0.0207,0.0262,0.0264,0.0239,0.024,0.024,0.024,0.0241,0,0.0408,0.0474,0.0572,0.0625,0.0714,0.077,0.0861,0.0897,0.0936,0.0983,0.0961,0.0942,0.0805,0.0682,0.055,0.0348,0.0356,0.0218,0.0165,0.029,0.0297,0.0253,0.0257,0.0234,0.0235,0.0237,0.0238,0,0.0417,0.0481,0.0583,0.0692,0.0731,0.0798,0.0911,0.0969,0.1003,0.1045,0.1047,0.0981,0.0828,0.0665,0.0451,0.0337,0.0157,0.0081,0.0212,0.0169,0.0028,0.0038,-0.0095,-0.0097,-0.0099,-0.0101,-0.0103,0,0.0439,0.0495,0.0629,0.0693,0.0751,0.0859,0.0935,0.1003,0.1056,0.1066,0.1061,0.0941,0.0876,0.0534,0.0372,0.0093,0.0062,-0.0036,0.002,0.0035,-0.0004,0.0009,0.0021,-0.0106,-0.0107,-0.0107,-0.0108,0,0.0478,0.0519,0.06,0.0736,0.0831,0.0934,0.103,0.1059,0.1122,0.1138,0.1065,0.0923,0.0731,0.0508,0.029,0.01,0.0033,-0.0059,-0.0056,-0.0004,0.0019,-0.0014,0.0,-0.0116,-0.0114,-0.0114,-0.0113,0,0.0501,0.0552,0.0656,0.0771,0.0889,0.0973,0.103,0.107,0.1109,0.11,0.1066,0.0897,0.0802,0.0507,0.031,0.0118,0.0072,0.0025,0.0023,0.003,0.0132,0.0183,0.005,0,0,0,0,0,0.0525,0.0576,0.0683,0.0807,0.0921,0.0985,0.1078,0.1118,0.1156,0.1104,0.1086,0.0917,0.063,0.0508,0.0304,0.0261,0.0037,0.0016,-0.0018,-0.0157,-0.0149,-0.0051,0,0,0,0,0,0,0.0533,0.0629,0.0676,0.0816,0.0896,0.1018,0.1075,0.1103,0.1066,0.1069,0.0911,0.0858,0.057,0.0737,0.0294,0.0239,0.0188,-0.0112,-0.0117,-0.0162,-0.0154,-0.0147,-0.0044,0,0,0,0,0]}]]